Weather History for Harrisburg, PA

Change the Weather History Date:

Friday, April 5, 2013

  Actual Average Record
Temperature  
Mean Temperature 48 °F -  
Max Temperature 63 °F 55 °F 83 °F (1910)
Min Temperature 34 °F 37 °F 23 °F (1898)
Degree Days  
Heating Degree Days 17    
Moisture  
Dew Point 20 °F    
Average Humidity 36    
Maximum Humidity 70    
Minimum Humidity 17    
Precipitation  
Precipitation 0.00 in - - ()
Sea Level Pressure  
Sea Level Pressure 29.94 in    
Wind  
Wind Speed 6 mph (NNW)    
Max Wind Speed 17 mph    
Max Gust Speed 24 mph    
Visibility 10 miles    
Events      
Averages and records for this station are not official NWS values.
T = Trace of Precipitation, MM = Missing Value Source: NWS Daily Summary

Daily Weather History Graph

Daily Weather History Graph

Search for Another Location

Airport:

Trip Planner

Search our weather history database for the weather conditions in past years. The results will help you decide how hot, cold, wet, or windy it might be!

Date:

Astronomy

Apr. 05, 2013 Rise Set
Actual Time 6:44 AM EDT 7:36 PM EDT
Civil Twilight 6:16 AM EDT 8:03 PM EDT
Nautical Twilight 5:44 AM EDT 8:36 PM EDT
Astronomical Twilight 5:10 AM EDT 9:10 PM EDT
Moon 3:50 AM EDT (4/5) 2:57 PM EDT (4/5)
Length of Visible Light 13h 46m
Length of Day
12h 51m
Waning Crescent, 24% of the Moon is Illuminated
Apr 5
Waning Crescent
Apr 10
New
Apr 18
First Quarter
Apr 25
Full
May 2
Last Quarter

Hourly Weather History & Observations

Time (EDT) Temp. Windchill Dew Point Humidity Pressure Visibility Wind Dir Wind Speed Gust Speed Precip Events Conditions
12:56 AM 41.0 °F 38.0 °F 21.0 °F 45% 30.04 in 10.0 mi SSE 4.6 mph - N/A   Partly Cloudy
1:56 AM 42.1 °F 40.2 °F 19.9 °F 41% 30.01 in 10.0 mi SE 3.5 mph - N/A   Mostly Cloudy
2:56 AM 39.9 °F - 21.9 °F 49% 29.99 in 10.0 mi Calm Calm - N/A   Clear
3:56 AM 41.0 °F - 21.9 °F 47% 29.96 in 10.0 mi Calm Calm - N/A   Clear
4:56 AM 37.0 °F - 25.0 °F 62% 29.96 in 10.0 mi Calm Calm - N/A   Clear
5:56 AM 34.0 °F - 24.1 °F 67% 29.96 in 10.0 mi Calm Calm - N/A   Clear
6:56 AM 34.0 °F - 25.0 °F 70% 29.95 in 10.0 mi Calm Calm - N/A   Clear
7:56 AM 37.0 °F - 26.1 °F 65% 29.96 in 10.0 mi Calm Calm - N/A   Clear
8:56 AM 42.1 °F - 26.1 °F 53% 29.94 in 10.0 mi Calm Calm - N/A   Clear
9:56 AM 46.9 °F - 24.1 °F 41% 29.92 in 10.0 mi NW 8.1 mph - N/A   Clear
10:56 AM 51.1 °F - 21.0 °F 31% 29.92 in 10.0 mi North 8.1 mph - N/A   Clear
11:56 AM 55.0 °F - 18.0 °F 23% 29.90 in 10.0 mi NNW 8.1 mph - N/A   Clear
12:56 PM 57.9 °F - 19.9 °F 23% 29.87 in 10.0 mi NNW 12.7 mph - N/A   Clear
1:56 PM 59.0 °F - 21.9 °F 24% 29.84 in 10.0 mi NNW 12.7 mph 21.9 mph N/A   Clear
2:56 PM 61.0 °F - 23.0 °F 23% 29.83 in 10.0 mi NNW 13.8 mph 23.0 mph N/A   Clear
3:56 PM 62.1 °F - 21.9 °F 21% 29.82 in 10.0 mi NNW 15.0 mph 21.9 mph N/A   Clear
4:56 PM 61.0 °F - 17.1 °F 18% 29.83 in 10.0 mi NNW 15.0 mph 21.9 mph N/A   Clear
5:56 PM 60.1 °F - 15.1 °F 17% 29.86 in 10.0 mi NNW 13.8 mph 23.0 mph N/A   Clear
6:56 PM 57.9 °F - 15.1 °F 19% 29.89 in 10.0 mi NNW 15.0 mph 21.9 mph N/A   Clear
7:56 PM 55.0 °F - 14.0 °F 20% 29.93 in 10.0 mi NW 13.8 mph - N/A   Clear
8:56 PM 53.1 °F - 15.1 °F 22% 29.98 in 10.0 mi NW 16.1 mph 20.7 mph N/A   Clear
9:56 PM 51.1 °F - 10.9 °F 20% 30.02 in 10.0 mi NW 13.8 mph 23.0 mph N/A   Clear
10:56 PM 48.0 °F - 12.9 °F 24% 30.05 in 10.0 mi NW 17.3 mph 24.2 mph N/A   Clear
11:56 PM 45.0 °F 40.6 °F 15.1 °F 30% 30.07 in 10.0 mi WNW 8.1 mph - N/A   Clear